Regional Weather Roundup
Issued by NWS

Home | Current Version | Previous Version | Graphics & Text | Print | Product List | Glossary On
Versions: 1 2 3 4 5 6 7 8 9 10 11 12 13 14 15 16 17 18 19 20 21 22 23 24 25 26 27 28 29 30 31 32 33 34 35 36 37 38 39 40 41 42 43 44 45 46 47 48 49 50
000
ASUS43 KLOT 010500
RWRIL

ILLINOIS REGIONAL WEATHER ROUNDUP
NATIONAL WEATHER SERVICE CHICAGO/ROMEOVILLE IL
1100 PM CST SAT JAN 31 2015

NOTE: "FAIR" INDICATES FEW OR NO CLOUDS BELOW 12,000 FEET WITH NO
SIGNIFICANT WEATHER AND/OR OBSTRUCTIONS TO VISIBILITY.

* THESE STATIONS ARE NOT UNDER NWS QUALITY CONTROL. THEY ALSO MAY NOT
  REPORT WEATHER SUCH AS PRECIPITATION OR FOG.

ILZ001-002-007-009-015-016-024-010600-
NORTHWEST ILLINOIS

CITY           SKY/WX    TMP DP  RH WIND       PRES   REMARKS
MOLINE         LGT SNOW  33  31  92 SE5       30.08F FOG     WCI  29
STERLING*        N/A    N/A N/A N/A MISG        N/A
$$

ILZ003-004-008-010-011-017-018-010600-
NORTH CENTRAL ILLINOIS

CITY           SKY/WX    TMP DP  RH WIND       PRES   REMARKS
ROCKFORD       LGT SNOW  31  28  89 E9        30.14F VSB 1   WCI  23
$$

ILZ005-006-012>014-019>023-010600-
NORTHEAST ILLINOIS

CITY           SKY/WX    TMP DP  RH WIND       PRES   REMARKS
CHICAGO-OHARE  LGT SNOW  31  29  92 E8        30.15S VSB 3/4 WCI  23
CHICAGO-MIDWAY LGT SNOW  33  31  92 E6        30.16S VSB 3/4 WCI  28
AURORA         LGT SNOW  33  30  88 E5        30.14S VSB 3/4 WCI  29
WAUKEGAN       LGT SNOW  30  29  96 NE9       30.16S VSB 1   WCI  22
DUPAGE AIRPORT LGT SNOW  31  30  96 NE8       30.14S VSB 1   WCI  23
WHEELING       LGT SNOW  30  28  92 E3        30.18S VSB 3/4
NORTHERLY ISL    N/A     31  30  96 NE3         N/A
$$

LMZ740>746-010600-
SOUTHERN LAKE MICHIGAN

STATION/POSITION SKY/WX   TEMP    WIND        PRES    VSBY  WAVE
                          AIR SEA DIR/SP/G                  HT/PER
                          (F)     (DEG/KT/KT) (MB)    (MI)  (FT/S)
WAUKEGAN HARBOR            30      70/  9/ 11   N/A
HARRISON CRIB              31      70/  9/ 10   N/A
BURNHAM HARBOR             31      50/  4/  5   N/A
CALUMET HARBOR             31      50/  5/  7   N/A
MICHIGAN CITY              30      20/  8/ 10   N/A
$$

ILZ025>027-034>036-040-047-049-050-058-095>099-010600-
WEST-CENTRAL ILLINOIS

CITY           SKY/WX    TMP DP  RH WIND       PRES   REMARKS
QUINCY         LGT SNOW  34  31  88 SE13      30.03F FOG     WCI  25
$$

ILZ028>032-037-038-041>044-048-051>054-059>061-010600-
CENTRAL ILLINOIS

CITY           SKY/WX    TMP DP  RH WIND       PRES   REMARKS
BLOOMINGTON    LGT SNOW  34  34 100 S9        30.13F FOG     WCI  26
DECATUR        MIX PCPN  34  32  92 SE6       30.15F FOG     WCI  29
PEORIA         LGT SNOW  34  32  92 S7        30.12F FOG     WCI  28
SPRINGFIELD    LGT RAIN  35  33  92 SE8       30.11F FOG     WCI  29
TAYLORVILLE    NOT AVBL
$$

ILZ033-039-045-046-055>057-062-063-010600-
EAST-CENTRAL ILLINOIS

CITY           SKY/WX    TMP DP  RH WIND       PRES   REMARKS
CHAMPAIGN      LGT SNOW  33  31  92 SE6       30.16S FOG     WCI  28
MATTOON        CLOUDY    33  30  88 SE6       30.15F WCI  28
$$

ILZ079-100>102-010600-
SOUTHWEST ILLINOIS

CITY           SKY/WX    TMP DP  RH WIND       PRES   REMARKS
BELLEVILLE     CLOUDY    38  29  70 E10       30.08F WCI  30
CAHOKIA*       CLOUDY    39  28  64 SE9       30.07F WCI  33
$$

ILZ064>066-069>071-074>076-080>082-084>086-088>090-092>094-010600-
SOUTH-CENTRAL ILLINOIS

CITY           SKY/WX    TMP DP  RH WIND       PRES   REMARKS
CARBONDALE     CLOUDY    37  25  61 SE6       30.10F WCI  32
MT. VERNON     CLOUDY    37  25  60 E5        30.13F WCI  34
$$

ILZ067-068-072-073-078-083-087-091-010600-
SOUTHEAST ILLINOIS

CITY           SKY/WX    TMP DP  RH WIND       PRES   REMARKS
LAWRENCEVILLE  CLOUDY    37  28  70 SE9       30.19F WCI  30
$$

ABBREVIATIONS USED IN REMARKS
   TC - TEMPERATURE IN CELSIUS
  WCI - WIND CHILL INDEX
   HX - HEAT INDEX
  VSB - VISIBILITY
$$




USA.gov is the U.S. government's official web portal to all federal, state and local government web resources and services.